If you wish to contribute or participate in the discussions about articles you are invited to join SKYbrary as a registered user

 Actions

Yamagata Airport

From SKYbrary Wiki

RJSC
Airport
ICAO: RJSC – IATA: GAJ
Summary
Name Yamagata Airport
Region Asia and Pacific
Territory Japan JP.gif
Location Higashine, Yamagata Prefecture
Serving Yamagata
Elevation 105.156 m
345 ft
345 ft105.156 m
Coordinates 38° 24' 38.28" N, 140° 21' 59.21" E
Runways
Designator Length Width Surface ROPS
1/19 1999 m6,558.399 ft
46 m150.919 ft
ASP yes/yes


METAR
Observation RJSC 121000Z VRB05KT 9999 -SHSN FEW025 SCT035 BKN050 02/M01 Q1018
Station Yamagata Airport
Date/Time 12 December 2019 10:00:00
Wind direction °
Wind speed 05 kts
Lowest cloud amount few clouds
Temperature 2°C
Dew point
Humidity 80%
QNH 1018 hPa
Weather condition light showers snow

Airport 23 km12.419 nm
23,000 m
75,459.318 ft
north of the city of Yamagata, Japan.

Climatology

Humid subtropical climate (Köppen climate classification Cfa).

Maps

Terrain

Loading map...

Airport Layout

Loading map...


Accidents & Serious Incidents at or in vicinity of RJSC

None on SKYbrary